Regional Weather Roundup
Issued by NWS Cleveland, OH

Home | Current Version | Previous Version | Graphics & Text | Print | Product List | Glossary On
Versions: 1 2 3 4 5 6 7 8 9 10 11 12 13 14 15 16 17 18 19 20 21 22 23 24 25 26 27 28 29 30 31 32 33 34 35 36 37 38 39 40 41 42 43 44 45 46 47 48 49 50
353
ASUS41 KCLE 190110
RWRCLE
OHIO REGIONAL WEATHER ROUNDUP
NATIONAL WEATHER SERVICE CLEVELAND, OH
900 PM EDT WED OCT 18 2017

NOTE: "FAIR" INDICATES FEW OR NO CLOUDS BELOW 12,000 FEET WITH NO
SIGNIFICANT WEATHER AND/OR OBSTRUCTIONS TO VISIBILITY.

OHZ001>008-015>018-024>027-034-035-043-044-190200-
   NORTHWEST OHIO

CITY           SKY/WX    TMP DP  RH WIND       PRES   REMARKS
DEFIANCE       CLEAR     56  40  55 S7        30.13S
FINDLAY        CLEAR     52  39  61 S9        30.15S
TOLEDO EXPRESS CLEAR     59  43  55 S7        30.13S
TOLEDO EXEC    CLEAR     59  40  49 S9        30.14F
LIMA           CLEAR     56  42  59 S8        30.16F
$$

OHZ009>014-019>023-028>033-038-089-190200-
   NORTHEAST OHIO

CITY           SKY/WX    TMP DP  RH WIND       PRES   REMARKS
CLE-HOPKINS    PTCLDY    57  42  57 S7        30.19S
CLE-LAKEFRONT  CLEAR     61  41  47 S8        30.17S
CUY CO. ARPT   CLEAR     61  43  51 S9        30.19S
LORAIN-ELYRIA  CLEAR     57  36  45 S8        30.18S
ASHTABULA      CLEAR     56  43  61 S5        30.19F
AKRON-CANTON   CLEAR     57  39  51 S5        30.21F
WOOSTER        CLEAR     44  41  89 S3        30.21S
MANSFIELD      CLEAR     54  40  59 S9        30.19F
YOUNGSTOWN     PTCLDY    58  41  53 S6        30.21F
$$

OHZ042-051>053-060>062-070>072-077>081-190200-
  SOUTHWEST OHIO

CITY           SKY/WX    TMP DP  RH WIND       PRES   REMARKS
CINC-COVINGTON CLEAR     55  46  71 S5        30.21S
CINC-LUNKEN    CLEAR     52  48  86 CALM      30.22S
HAMILTON       CLEAR     47  44  90 S5        30.21S
DAYTON         CLEAR     59  44  57 S8        30.20S
WRIGHT-PAT AFB NOT AVBL
DAYTON GENERAL CLEAR     56  44  64 S3        30.19F
WILMINGTON     CLEAR     53  44  71 S6        30.21S
$$

OHZ036-037-039>041-045>050-054>059-063>069-073>076-082>088-190200-
  CENTRAL AND SOUTHEAST OHIO

CITY           SKY/WX    TMP DP  RH WIND       PRES   REMARKS
COLUMBUS       CLEAR     59  40  49 S5        30.21R
OSU AIRPORT    CLEAR     59  42  53 S7        30.20S
BOLTON FIELD   CLEAR     53  42  65 S6        30.21S
RICKENBACK AFB CLEAR     53  41  64 S6        30.21S
NEWARK         CLEAR     49  43  80 CALM      30.21F
MARION         CLEAR     56  39  53 S8        30.19S
LANCASTER      CLEAR     47  43  86 CALM      30.22S
ZANESVILLE     CLEAR     53  40  61 CALM      30.22F
NEW PHILLY     NOT AVBL
$$




USA.gov is the U.S. government's official web portal to all federal, state and local government web resources and services.